Regional Weather Roundup
Issued by NWS

Home | Current Version | Previous Version | Text Only | Print | Product List | Glossary Off
Versions: 1 2 3 4 5 6 7 8 9 10 11 12 13 14 15 16 17 18 19 20 21 22 23 24 25 26 27 28 29 30 31 32 33 34 35 36 37 38 39 40 41 42 43 44 45 46 47 48 49 50

000
ASUS43 KMPX 220910
RWRMN
WEATHER ROUNDUP FOR MINNESOTA
NATIONAL WEATHER SERVICE TWIN CITIES/CHANHASSEN MN
400 AM CDT TUE AUG 22 2017


NOTE: "FAIR" INDICATES FEW OR NO CLOUDS BELOW 12,000 FEET WITH NO
SIGNIFICANT WEATHER AND/OR OBSTRUCTIONS TO VISIBILITY. N/A MEANS
CURRENT SKY AND/OR WEATHER CONDITIONS ARE NOT AVAILABLE.

MNZ060>063-068>070-221000-
   Twin Cities Metro

CITY           SKY/WX    TMP DP  RH WIND       PRES   REMARKS
TWIN CITIES    CLEAR     63  59  87 NW10      29.91R
ST PAUL        CLEAR     64  61  90 NW8       29.90R
CRYSTAL        CLEAR     62  57  83 NW7       29.90R
BLAINE         CLEAR     63  63 100 W9        29.91R
LAKEVILLE      CLEAR     61  61 100 W3        29.91S
EDEN PRAIRIE   CLEAR     65  59  81 NW9       29.91R
SOUTH ST PAUL  CLEAR     64  62  91 NW7       29.90R
LAKE ELMO      FAIR      63  61  94 NW8       29.91R
$$
MNZ001>005-007-008-013>017-022>024-027-028-221000-
   Northwest Minnesota

CITY           SKY/WX    TMP DP  RH WIND       PRES   REMARKS
BEMIDJI        CLEAR     48  48 100 W7        29.97S
HALLOCK        CLEAR     48  46  93 CALM      29.97S
ROSEAU         PTCLDY    52  46  82 W9        29.95S
WARROAD        PTCLDY    48  45  87 W6        29.94S
CROOKSTON      CLEAR     46  46 100 W3        30.00S
FOSSTON        CLEAR     48  46  93 W3        30.00S
DETROIT LAKES  CLEAR     52  50  93 NW7       30.02S
MOORHEAD       CLEAR     52  48  87 W3        30.03S
PARK RAPIDS    CLEAR     52  50  93 NW6       29.98R
MAHNOMEN       FAIR      49  48  98 CALM      30.00S
$$
MNZ006-009>011-018-025>026-221000-
   North Central Minnesota

CITY           SKY/WX    TMP DP  RH WIND       PRES   REMARKS
BAUDETTE       CLEAR     49  49 100 W6        29.92S
FLAG ISLAND      N/A     54  48  82 W6        29.89F
INTL FALLS     CLEAR     50  48  93 W6        29.89R
WASKISH        CLEAR     55  54  94 NW10G18   29.95S
BIG FORK       CLEAR     52  52 100 CALM      29.93R
LONGVILLE      CLEAR     57  52  82 NW7       29.94S
GRAND RAPIDS   CLEAR     54  52  93 NW10      29.94R
CRANE LAKE     CLEAR     50  50 100 CALM      29.88S
ORR            MOCLDY    54  50  87 NW6       29.86S
COOK           CLOUDY    54  52  94 W6        29.89R
WALKER         FAIR      51  50  96 W7        29.97R
$$
MNZ012-019>021-037-221000-
   Northeast Minnesota

CITY           SKY/WX    TMP DP  RH WIND       PRES   REMARKS
DULUTH         CLOUDY    56  55  97 NW10      29.86R
ELY            CLOUDY    52  52 100 W3        29.85S
HIBBING        CLEAR     52  50  93 NW12      29.89R
EVELETH        PTCLDY    55  51  86 NW9       29.88R
DULUTH HARBOR  PTCLDY    61  57  88 NW12      29.86R
TWO HARBORS    MOCLDY    57  54  88 CALM      29.83R
SILVER BAY     CLEAR     52  52 100 CALM      29.82
GRAND MARAIS     N/A     57  55  93 CALM      29.79R
G MARAIS ARPRT MOCLDY    52  46  82 CALM      29.81F
$$
MNZ029>031-032-039>041-046>048-054>057-064-221000-
   West Central Minnesota

CITY           SKY/WX    TMP DP  RH WIND       PRES   REMARKS
FERGUS FALLS   PTCLDY    52  52 100 CALM      30.04R
WHEATON        CLEAR     54  50  87 NW6       30.06R
MORRIS         CLEAR     54  52  94 NW9       30.02R
ALEXANDRIA     CLEAR     57  54  89 NW9       30.02R
ELBOW LAKE     FAIR      53  52  95 NW9       30.03R
WADENA         CLEAR     52  52 100 W6        29.99R
GLENWOOD       CLEAR     54  52  94 NW7       30.01R
APPLETON       CLEAR     55  52  88 NW5       30.03R
BENSON         CLEAR     54  52  94 N7        30.03S
ORTONVILLE     CLEAR     55  52  88 MISG      30.04R
MADISON        CLEAR     57  57 100 W8        30.05R
WILLMAR        FAIR      57  55  94 NW7       30.01R
$$
MNZ033>034-036-042>043-049>051-058-059-221000-
   Central Minnesota

CITY           SKY/WX    TMP DP  RH WIND       PRES   REMARKS
ST CLOUD       CLEAR     59  55  87 NW10      29.94R
SAUK CENTRE    FAIR      56  53  88 NW7       29.99S
PAYNESVILLE    CLEAR     57  55  91 NW6       29.99R
AITKIN         CLEAR     55  54  94 NW5       29.92R
PINE RIVER     CLEAR     54  48  82 NW5       29.99R
BRAINERD       CLEAR     56  53  90 NW9       29.95R
STAPLES        CLEAR     52  50  93 W5        29.98R
LONG PRAIRIE   FAIR      54  50  87 W7        30.00R
LITTLE FALLS   CLEAR     55  52  88 NW6       29.96R
LITCHFIELD     CLEAR     61  57  88 NW9       29.98R
BUFFALO        CLEAR     61  55  80 NW10      29.95R
MAPLE LAKE     CLEAR     61  57  85 NW10G16   29.95R
HUTCHINSON     CLEAR     60  58  92 NW9       29.98R
$$
MNZ037-044-045-052-053-221000-
   East Central Minnesota

CITY           SKY/WX    TMP DP  RH WIND       PRES   REMARKS
PRINCETON      CLEAR     61  57  88 NW9       29.93R
MORA           CLEAR     55  54  94 NW5       29.92R
CAMBRIDGE      CLEAR     63  57  82 NW8       29.91R
RUSH CITY      MOCLDY    58  56  94 CALM      29.90R FOG
MOOSE LAKE     PTCLDY    54  54 100 NW5       29.88R
HINCKLEY       FAIR      59  57  94 NW6       29.90R
CLOQUET        PTCLDY    55  52  88 NW7       29.88R
MCGREGOR       CLEAR     55  54  94 NW8       29.92R
$$
MNZ071>073-080-081-089-090-097-098-221000-
   Southwest Minnesota

CITY           SKY/WX    TMP DP  RH WIND       PRES   REMARKS
MONTEVIDEO     CLEAR     54  54 100 N6        30.03R
GRANITE FALLS  CLEAR     57  55  91 W8        30.04R
CANBY          CLEAR     55  51  87 CALM      30.06R
MARSHALL       CLEAR     55  53  93 NW9       30.05R
REDWOOD FALLS  CLEAR     59  53  80 NW14      30.00R
OLIVIA         CLEAR     55  54  94 NW7       30.00R
PIPESTONE      CLEAR     57  52  82 N6        30.07R
WINDOM         CLEAR     59  54  82 NW10      30.02R
WORTHINGTON    CLEAR     58  54  86 NW12      30.05R
JACKSON        CLEAR     59  54  82 NW10      30.02R
TRACY          CLEAR     58  55  92 NW9       30.04S
SLAYTON        CLEAR     56  50  80 NW10      30.06R
$$
MNZ065>067-074>077-082>085-091>093-221000-
   South Central Minnesota

CITY           SKY/WX    TMP DP  RH WIND       PRES   REMARKS
MANKATO        CLEAR     61  58  90 NW9       29.96R
NEW ULM        CLEAR     59  55  88 NW12      29.97S
ST JAMES       CLEAR     59  57  94 W10       29.99R
FAIRMONT       CLEAR     61  58  90 NW9       29.98S
GLENCOE        CLEAR     61  60  97 W9        29.95R
FARIBAULT      CLEAR     63  61  94 W7        29.93S
OWATONNA       CLEAR     63  59  88 W9        29.93S
WASECA         CLEAR     59  57  94 NW8       29.95S
ALBERT LEA     CLEAR     64  64 100 W7        29.94S
$$
MNZ078>079-086>088-094>096-221000-
   Southeast Minnesota

CITY           SKY/WX    TMP DP  RH WIND       PRES   REMARKS
ROCHESTER      PTCLDY    62  61  96 NW12      29.91S
RED WING       CLEAR     64  61  88 W7        29.87R
STANTON        CLEAR     62  59  91 NW8       29.90S
DODGE CENTER   CLOUDY    63  61  94 W9        29.92R
WINONA         MOCLDY    68  63  83 NW9       29.85F
AUSTIN         CLEAR     63  61  94 NW9       29.91F
PRESTON        CLOUDY    61  59  94 W8        29.90S
$$
ABBREVIATIONS USED IN REMARKS
   TC - TEMPERATURES IN CELSIUS
  WCI - WIND CHILL INDEX
   HX - HEAT INDEX
  VSB - VISIBILITY
$$




USA.gov is the U.S. government's official web portal to all federal, state and local government web resources and services.